• In Hungary
  • List of Countries
  • For 7 days
  • Water Temperature
  • Satellite Maps
  • Weather Map
  • News
  • Weather Widgets
  • user-avatar
    Login

    Hourly Weather Svekrovschina

    Today, 25 February, Sunday

    Time Temperature Precipitation Wind Pressure Humidity
    00:00 -20°C° 0 mm 2 mps 752 mmHg 96%
    01:00 -20°C° 0 mm 2 mps 752 mmHg 96%
    02:00 -21°C° 0 mm 2 mps 752 mmHg 97%
    03:00 -21°C° 0 mm 2 mps 752 mmHg 98%
    04:00 -21°C° 0 mm 2 mps 752 mmHg 98%
    05:00 -23°C° 0 mm 2 mps 752 mmHg 99%
    06:00 -21°C° 0 mm 2 mps 752 mmHg 98%
    07:00 -21°C° 0 mm 2 mps 752 mmHg 98%
    08:00 -21°C° 0 mm 2 mps 753 mmHg 98%
    09:00 -19°C° 0 mm 2 mps 753 mmHg 96%
    10:00 -18°C° 0 mm 2 mps 753 mmHg 93%
    11:00 -16°C° 0 mm 2 mps 753 mmHg 91%
    12:00 -16°C° 0 mm 2 mps 753 mmHg 89%
    13:00 -15°C° 0 mm 2 mps 752 mmHg 87%
    14:00 -14°C° 0 mm 2 mps 752 mmHg 85%
    15:00 -15°C° 0 mm 2 mps 752 mmHg 87%
    16:00 -16°C° 0 mm 2 mps 752 mmHg 89%
    17:00 -17°C° 0 mm 2 mps 752 mmHg 91%
    18:00 -18°C° 0 mm 2 mps 752 mmHg 92%
    19:00 -19°C° 0 mm 2 mps 752 mmHg 94%
    20:00 -20°C° 0 mm 2 mps 752 mmHg 95%
    21:00 -21°C° 0 mm 2 mps 752 mmHg 96%
    22:00 -19°C° 0 mm 1 mps 752 mmHg 96%
    23:00 -20°C° 0 mm 1 mps 752 mmHg 97%

    Tomorrow, 26 February, Monday

    Time Temperature Precipitation Wind Pressure Humidity
    00:00 -20°C° 0 mm 1 mps 752 mmHg 97%
    01:00 -21°C° 0 mm 1 mps 752 mmHg 98%
    02:00 -21°C° 0 mm 1 mps 752 mmHg 98%
    03:00 -21°C° 0 mm 1 mps 752 mmHg 98%
    04:00 -21°C° 0 mm 1 mps 752 mmHg 98%
    05:00 -22°C° 0 mm 1 mps 752 mmHg 98%
    06:00 -21°C° 0 mm 1 mps 752 mmHg 98%
    07:00 -21°C° 0 mm 1 mps 752 mmHg 98%
    08:00 -21°C° 0 mm 1 mps 752 mmHg 98%
    09:00 -20°C° 0 mm 1 mps 752 mmHg 95%
    10:00 -18°C° 0 mm 1 mps 752 mmHg 92%
    11:00 -17°C° 0 mm 1 mps 752 mmHg 89%
    12:00 -16°C° 0 mm 1 mps 752 mmHg 86%
    13:00 -15°C° 0 mm 1 mps 752 mmHg 84%
    14:00 -14°C° 0 mm 1 mps 752 mmHg 82%
    15:00 -15°C° 0 mm 1 mps 752 mmHg 85%
    16:00 -16°C° 0 mm 1 mps 752 mmHg 87%
    17:00 -18°C° 0 mm 1 mps 752 mmHg 90%
    18:00 -19°C° 0 mm 1 mps 752 mmHg 91%
    19:00 -20°C° 0 mm 1 mps 752 mmHg 93%
    20:00 -21°C° 0 mm 1 mps 752 mmHg 94%
    21:00 -21°C° 0 mm 1 mps 753 mmHg 95%
    22:00 -21°C° 0 mm 1 mps 753 mmHg 95%
    23:00 -22°C° 0 mm 1 mps 753 mmHg 95%

    Day after tomorrow, 27 February, Tuesday

    Time Temperature Precipitation Wind Pressure Humidity
    00:00 -22°C° 0 mm 1 mps 754 mmHg 95%
    01:00 -26°C° 0 mm 2 mps 754 mmHg 96%
    02:00 -26°C° 0 mm 2 mps 754 mmHg 96%
    03:00 -26°C° 0 mm 2 mps 754 mmHg 96%
    04:00 -27°C° 0 mm 2 mps 754 mmHg 97%
    05:00 -27°C° 0 mm 2 mps 755 mmHg 97%
    06:00 -27°C° 0 mm 2 mps 755 mmHg 97%
    07:00 -27°C° 0 mm 3 mps 755 mmHg 97%
    08:00 -27°C° 0 mm 3 mps 756 mmHg 97%
    09:00 -25°C° 0 mm 3 mps 756 mmHg 95%
    10:00 -24°C° 0 mm 4 mps 756 mmHg 94%
    11:00 -23°C° 0 mm 4 mps 757 mmHg 92%
    12:00 -20°C° 0 mm 4 mps 757 mmHg 91%
    13:00 -19°C° 0 mm 4 mps 757 mmHg 90%
    14:00 -19°C° 0 mm 5 mps 757 mmHg 88%
    15:00 -19°C° 0 mm 5 mps 757 mmHg 89%
    16:00 -20°C° 0 mm 5 mps 757 mmHg 89%
    17:00 -20°C° 0 mm 5 mps 757 mmHg 90%
    18:00 -20°C° 0 mm 5 mps 757 mmHg 90%
    19:00 -21°C° 0 mm 6 mps 757 mmHg 90%
    20:00 -22°C° 0 mm 6 mps 757 mmHg 90%
    21:00 -22°C° 0 mm 6 mps 757 mmHg 89%
    22:00 -23°C° 0 mm 7 mps 757 mmHg 89%
    23:00 -23°C° 0 mm 7 mps 757 mmHg 88%

    28 February, Wednesday

    Time Temperature Precipitation Wind Pressure Humidity
    00:00 -23°C° 0 mm 7 mps 757 mmHg 88%
    01:00 -23°C° 0 mm 7 mps 756 mmHg 88%
    02:00 -23°C° 0 mm 7 mps 756 mmHg 87%
    03:00 -23°C° 0 mm 8 mps 756 mmHg 87%
    04:00 -24°C° 0 mm 8 mps 755 mmHg 87%
    05:00 -24°C° 0 mm 8 mps 755 mmHg 87%
    06:00 -23°C° 0.2 mm 8 mps 754 mmHg 87%
    07:00 -24°C° 0.2 mm 9 mps 754 mmHg 87%
    08:00 -24°C° 0.2 mm 9 mps 754 mmHg 88%
    09:00 -22°C° 0.3 mm 9 mps 754 mmHg 88%
    10:00 -22°C° 0.3 mm 9 mps 753 mmHg 88%
    11:00 -21°C° 0.3 mm 9 mps 753 mmHg 89%
    12:00 -20°C° 0.2 mm 9 mps 752 mmHg 89%
    13:00 -20°C° 0.2 mm 9 mps 752 mmHg 88%
    14:00 -19°C° 0.2 mm 9 mps 751 mmHg 88%
    15:00 -18°C° 0.2 mm 8 mps 751 mmHg 88%
    16:00 -18°C° 0.2 mm 8 mps 751 mmHg 89%
    17:00 -18°C° 0.2 mm 8 mps 751 mmHg 89%
    18:00 -18°C° 0.2 mm 8 mps 751 mmHg 89%
    19:00 -18°C° 0.2 mm 8 mps 751 mmHg 89%
    20:00 -18°C° 0.2 mm 7 mps 751 mmHg 89%
    21:00 -18°C° 0.1 mm 7 mps 751 mmHg 89%
    22:00 -18°C° 0.1 mm 7 mps 751 mmHg 89%
    23:00 -18°C° 0.1 mm 7 mps 751 mmHg 90%

    1 March, Thursday

    Time Temperature Precipitation Wind Pressure Humidity
    00:00 -18°C° 0.1 mm 7 mps 751 mmHg 90%
    01:00 -17°C° 0.1 mm 6 mps 751 mmHg 90%
    02:00 -17°C° 0.1 mm 6 mps 751 mmHg 90%
    03:00 -17°C° 0 mm 6 mps 750 mmHg 91%
    04:00 -17°C° 0 mm 6 mps 750 mmHg 91%
    05:00 -17°C° 0 mm 6 mps 750 mmHg 92%
    06:00 -17°C° 0.4 mm 6 mps 750 mmHg 92%
    07:00 -16°C° 0.4 mm 6 mps 750 mmHg 93%
    08:00 -16°C° 0.4 mm 6 mps 749 mmHg 94%
    09:00 -16°C° 0.7 mm 6 mps 749 mmHg 94%
    10:00 -16°C° 0.7 mm 6 mps 749 mmHg 94%
    11:00 -15°C° 0.7 mm 7 mps 748 mmHg 94%
    12:00 -15°C° 0.7 mm 6 mps 748 mmHg 94%
    13:00 -14°C° 0.7 mm 6 mps 747 mmHg 94%
    14:00 -12°C° 0.7 mm 6 mps 746 mmHg 94%
    15:00 -12°C° 0.7 mm 6 mps 746 mmHg 94%
    16:00 -11°C° 0.7 mm 6 mps 745 mmHg 94%
    17:00 -11°C° 0.7 mm 6 mps 745 mmHg 93%
    18:00 -11°C° 0.3 mm 6 mps 745 mmHg 93%
    19:00 -11°C° 0.3 mm 6 mps 744 mmHg 92%
    20:00 -10°C° 0.3 mm 6 mps 744 mmHg 91%
    21:00 -10°C° 0.6 mm 6 mps 743 mmHg 92%
    22:00 -10°C° 0.6 mm 6 mps 743 mmHg 92%
    23:00 -10°C° 0.6 mm 6 mps 743 mmHg 93%

    2 March, Friday

    Time Temperature Precipitation Wind Pressure Humidity
    00:00 -10°C° 0.2 mm 6 mps 742 mmHg 92%
    01:00 -9°C° 0.2 mm 6 mps 742 mmHg 91%
    02:00 -9°C° 0.2 mm 6 mps 742 mmHg 90%
    03:00 -9°C° 0.1 mm 6 mps 742 mmHg 90%
    04:00 -9°C° 0.1 mm 6 mps 742 mmHg 90%
    05:00 -9°C° 0.1 mm 6 mps 741 mmHg 89%
    06:00 -11°C° 0.1 mm 7 mps 742 mmHg 90%
    07:00 -11°C° 0.1 mm 7 mps 742 mmHg 90%
    08:00 -12°C° 0.1 mm 7 mps 742 mmHg 90%
    09:00 -12°C° 0.1 mm 7 mps 742 mmHg 90%
    10:00 -12°C° 0.1 mm 7 mps 742 mmHg 91%
    11:00 -12°C° 0.1 mm 7 mps 742 mmHg 91%
    12:00 -11°C° 0.1 mm 6 mps 743 mmHg 90%
    13:00 -11°C° 0.1 mm 6 mps 743 mmHg 90%
    14:00 -11°C° 0.1 mm 6 mps 743 mmHg 89%
    15:00 -11°C° 0.1 mm 5 mps 743 mmHg 89%
    16:00 -12°C° 0.1 mm 5 mps 743 mmHg 89%
    17:00 -11°C° 0.1 mm 4 mps 743 mmHg 88%
    18:00 -12°C° 0 mm 4 mps 743 mmHg 90%
    19:00 -14°C° 0 mm 3 mps 743 mmHg 92%
    20:00 -15°C° 0 mm 3 mps 743 mmHg 94%
    21:00 -16°C° 0 mm 3 mps 742 mmHg 95%
    22:00 -17°C° 0 mm 3 mps 742 mmHg 96%
    23:00 -17°C° 0 mm 2 mps 742 mmHg 97%
    Show more